Volver al catálogo

COSMOS 2425

GLONASS

ActivoNavegaciónMEO
NORAD 29670·PAYLOAD·🇷🇺 Russia

Lanzado Dec 25, 2006 desde Baikonur Cosmodrome

Loading…

Próximos Pases (próximas 24 horas)

TLE

ActualizadoSource: Space-Track

Época: Sep 13, 2026, 11:43 UTC

1 29670U 06062A   26256.48829913  .00000016  00000-0  00000-0 0  9990
2 29670  64.6947 191.3482 0022909 353.4785 185.8917  2.13117690153465

Sigue COSMOS 2425 en tiempo real con AllMySat

Download on the App Store